Regional Weather Roundup
Issued by NWS

Home | Current Version | Previous Version | Text Only | Print | Product List | Glossary Off
Versions: 1 2 3 4 5 6 7 8 9 10 11 12 13 14 15 16 17 18 19 20 21 22 23 24 25 26 27 28 29 30 31 32 33 34 35 36 37 38 39 40 41 42 43 44 45 46 47 48 49 50

000
ASUS43 KMKX 301211
RWRWI

WISCONSIN REGIONAL WEATHER ROUNDUP
NATIONAL WEATHER SERVICE MILWAUKEE/SULLIVAN WI
700 AM CDT WED JUL 30 2014

NOTE: "FAIR" INDICATES FEW OR NO CLOUDS BELOW 12,000 FEET WITH NO
SIGNIFICANT WEATHER AND/OR OBSTRUCTIONS TO VISIBILITY.

WIZ001-002-006>008-014>016-023>028-301300-
NORTHWEST WISCONSIN

CITY           SKY/WX    TMP DP  RH WIND       PRES   REMARKS
SUPERIOR ARPT  FOG       48  48 100 CALM      30.08S VSB 1/2
6HR MIN TEMP:  43; 6HR MAX TEMP:  55;

ASHLAND        FOG       51  51 100 SW5       30.09R VSB 1/4
6HR MIN TEMP:  45; 6HR MAX TEMP:  53;

HAYWARD        FOG       51  51 100 CALM      30.09S VSB<1/4
6HR MIN TEMP:  47; 6HR MAX TEMP:  54;

SIREN          FOG       52  51  98 CALM      30.09S VSB 1/2
6HR MIN TEMP:  51; 6HR MAX TEMP:  57;

RICE LAKE      FOG       55  55  97 N3        30.10S VSB<1/4
6HR MIN TEMP:  51; 6HR MAX TEMP:  57; 6HR PCP:  0.01;

LADYSMITH      CLOUDY    55  54  95 CALM      30.11S FOG
6HR MIN TEMP:  55; 6HR MAX TEMP:  58;

EAU CLAIRE     SUNNY     54  54 100 NE3       30.07S
6HR MIN TEMP:  51; 6HR MAX TEMP:  59;

MENOMONIE      SUNNY     56  56  98 CALM      30.08F
6HR MIN TEMP:  55; 6HR MAX TEMP:  60;

NEW RICHMOND   SUNNY     55  55 100 CALM      30.09S FOG
6HR MIN TEMP:  53; 6HR MAX TEMP:  60;

OSCEOLA        PTSUNNY   54  54 100 CALM      30.11S
6HR MIN TEMP:  52; 6HR MAX TEMP:  59;

$$

WIZ003>005-009-010-017-018-301300-
NORTH CENTRAL WISCONSIN

CITY           SKY/WX    TMP DP  RH WIND       PRES   REMARKS
WOODRUFF       FOG       53  51  92 N3        30.08S VSB<1/4
6HR MIN TEMP:  46; 6HR MAX TEMP:  57;

RHINELANDER    FOG       51  51 100 CALM      30.08S VSB 1/4
6HR MIN TEMP:  47; 6HR MAX TEMP:  54;

EAGLE RIVER    FOG       50  50 100 CALM      30.07S VSB 1/4
6HR MIN TEMP:  47; 6HR MAX TEMP:  52;

LAND O LAKES   FOG       51  51 100 CALM      30.09R VSB<1/4
6HR MIN TEMP:  45; 6HR MAX TEMP:  54;

PHILLIPS       CLOUDY    53  53  99 CALM      30.09R FOG
6HR MIN TEMP:  50; 6HR MAX TEMP:  54;

TOMAHAWK       FOG       48  47  97 CALM      30.09R VSB<1/4
6HR MIN TEMP:  43; 6HR MAX TEMP:  50;

MEDFORD        FOG       51  51  99 CALM      30.08S VSB<1/4
6HR MIN TEMP:  49; 6HR MAX TEMP:  53;

MERRILL        FOG       49  49 100 CALM      30.08R VSB 1/4
6HR MIN TEMP:  48; 6HR MAX TEMP:  52;

$$

WIZ029-030-035-036-043>047-301300-
CENTRAL WISCONSIN

CITY           SKY/WX    TMP DP  RH WIND       PRES   REMARKS
WAUSAU         FOG       52  52 100 NW5       30.06R VSB 1
6HR MIN TEMP:  52; 6HR MAX TEMP:  57;

MOSINEE        SUNNY     52  52 100 CALM      30.07S
MARSHFIELD     SUNNY     57  54  89 N3        30.06S
6HR MIN TEMP:  52; 6HR MAX TEMP:  58;

STEVENS POINT  SUNNY     51  50  98 N3        30.06S FOG
6HR MIN TEMP:  48; 6HR MAX TEMP:  56;

WAUPACA        SUNNY     58  56  94 N5        30.05S
6HR MIN TEMP:  57; 6HR MAX TEMP:  61;

WAUTOMA        CLOUDY    58  56  93 CALM      30.05S
6HR MIN TEMP:  55; 6HR MAX TEMP:  59;

WISC RAPIDS    SUNNY     56  54  93 N3        30.07R
6HR MIN TEMP:  54; 6HR MAX TEMP:  58;

CAMP DOUGLAS   SUNNY     54  54 100 CALM      30.06R
$$

WIZ011>013-019>022-031-037>040-048>050-301300-
NORTHEAST WISCONSIN

CITY           SKY/WX    TMP DP  RH WIND       PRES   REMARKS
ANTIGO         SUNNY     49  49 100 CALM      30.07S
6HR MIN TEMP:  45; 6HR MAX TEMP:  53;

STURGEON BAY   MOSUNNY   57  55  94 N6        30.04R
6HR MIN TEMP:  54; 6HR MAX TEMP:  61;

GREEN BAY      MOSUNNY   58  56  93 NW3       30.04R
6HR MIN TEMP:  56; 6HR MAX TEMP:  59;

MANITOWOC      MOSUNNY   57  56  96 N3        30.04R
6HR MIN TEMP:  56; 6HR MAX TEMP:  60;

APPLETON       PTSUNNY   57  57 100 VRB5      30.05R FOG
CLINTONVILLE   MOSUNNY   55  54  94 CALM      30.05R
OSHKOSH        CLOUDY    61  59  93 N7        30.03S FOG
6HR MIN TEMP:  57; 6HR MAX TEMP:  61;

$$

WIZ032>034-041-042-053>061-301300-
SOUTHWEST WISCONSIN

CITY           SKY/WX    TMP DP  RH WIND       PRES   REMARKS
LA CROSSE      NOT AVBL
SPARTA         FOG       53  53  98 CALM      30.07S VSB<1/4
6HR MIN TEMP:  53; 6HR MAX TEMP:  58; 6HR PCP:  0.01;

VIROQUA        FAIR      56  56 100 CALM      30.07S
6HR MIN TEMP:  55; 6HR MAX TEMP:  59;

BOSCOBEL       FOG       58  57  97 CALM      30.07R VSB<1/4
6HR MIN TEMP:  57; 6HR MAX TEMP:  62;

PRAIRIE DU CHI SUNNY     58  55  92 CALM      30.06S
6HR MIN TEMP:  56; 6HR MAX TEMP:  65;

PLATTEVILLE    FAIR      57  56  96 CALM      30.07S
6HR MIN TEMP:  55; 6HR MAX TEMP:  62;

$$

WIZ056-057-062-063-064-067-068-301300-
SOUTH CENTRAL WISCONSIN

CITY           SKY/WX    TMP DP  RH WIND       PRES   REMARKS
BARABOO/DELLS  SUNNY     56  54  94 CALM      30.05S
6HR MIN TEMP:  53; 6HR MAX TEMP:  58;

LONE ROCK      SUNNY     59  55  87 CALM      30.06R FOG
6HR MIN TEMP:  58; 6HR MAX TEMP:  65;

WATERTOWN      SUNNY     57  56  99 CALM      30.03S
6HR MIN TEMP:  56; 6HR MAX TEMP:  57; 6HR PCP:  0.40;

MADISON        SUNNY     60  56  86 NW3       30.04R
6HR MIN TEMP:  57; 6HR MAX TEMP:  61;

MIDDLETON      FAIR      58  58  97 W5        30.05S
6HR MIN TEMP:  57; 6HR MAX TEMP:  61;

MONROE         SUNNY     59  55  88 W7        30.05R
JANESVILLE     SUNNY     57  55  94 CALM      30.04R
$$

WIZ051-052-058>065-066-070>072-301300-
SOUTHEAST WISCONSIN

CITY           SKY/WX    TMP DP  RH WIND       PRES   REMARKS
MILWAUKEE      MOSUNNY   61  56  83 NW6       30.03R
6HR MIN TEMP:  59; 6HR MAX TEMP:  61;

WAUKESHA       PTSUNNY   57  55  94 W6        30.04R
MILWAUKEE/TIMM SUNNY     57  54  88 NW5       30.03R
RACINE         MOSUNNY   60  57  89 W6        30.04R
6HR MIN TEMP:  58; 6HR MAX TEMP:  60;

BURLINGTON     MOSUNNY   58  56  94 CALM      30.03R
6HR MIN TEMP:  52; 6HR MAX TEMP:  58;

KENOSHA        PTSUNNY   61  58  90 NW5       30.03R
6HR MIN TEMP:  53; 6HR MAX TEMP:  61;

FOND DU LAC    CLOUDY    59  57  93 CALM      30.04R
6HR MIN TEMP:  54; 6HR MAX TEMP:  59;

SHEBOYGAN      SUNNY     58  56  93 N5        30.02R
6HR MIN TEMP:  56; 6HR MAX TEMP:  58;

WEST BEND      CLOUDY    57  54  88 NW5       30.03S
JUNEAU         CLOUDY    56  56 100 N7        30.04S FOG
6HR MIN TEMP:  53; 6HR MAX TEMP:  56;

$$

LSZ147-162-301300-
LAKE SUPERIOR

STATION/POSITION TIME  TEMP    WIND        PRES    WAVE
                       AIR SEA DIR/SP/G            HT/PER
                 (UTC) (F)     (DEG/KT/KT) (MB)    (FT/S)
W MID LAKE BUOY  1150   48 42  270/  6/  6 1018.0R   0
PORT WING        1100   52     200/  4/  6 1018.6R
SAXON HARBOR     1100          200/  3/  5 1018.6R
$$

LMZ867-665-643>646-301300-
LAKE MICHIGAN

STATION/POSITION TIME  TEMP    WIND        PRES    WAVE
                       AIR SEA DIR/SP/G            HT/PER
                 (UTC) (F)     (DEG/KT/KT) (MB)    (FT/S)
N MID LAKE BUOY  1150   56 55  320/ 10/ 10 1015.6R   0
NORTHPORT PIER   1100   59     320/  9/ 13 1016.3R
SISTER BAY       1125   59     350/ 13/ 14   N/A
ALGOMA LAKESHORE 1106             CALM       N/A
KEWAUNEE LAKESHO 1100   56     320/  2/  3 1017.2R
SHEBOYGAN LAKESH 1200   60     350/ 11/ 12 1016.7R
PORT WASHINGTON  1100   60     320/  5/  6 1016.6S
ATWATER BUOY     1200   60     300/ 10     1017.5R
MILWAUKEE LAKESH 1100   60     300/  7/ 10   N/A
S MID LAKE BUOY  1150   60 60  280/  8/ 10 1016.4R   1
KENOSHA   LAKESH 1100   61     290/  6/  7 1016.3R
$$

TC  - TEMPERATURE IN CELSIUS
VSB - VISIBILITY IN STATUTE MILES
WCI - WIND CHILL INDEX
HX  - HEAT INDEX



USA.gov is the U.S. government's official web portal to all federal, state and local government web resources and services.